| time (UTC) | temp F | wind direction | speed MPH | gust MPH | rain 1hr in | rain 24hr in | rain mn in | humidity % | barometer mb |
| 20260508130603 | 56 | 98 | 6.0 | 13.0 | 0.00 | 0.00 | 0.00 | 54 | 1014.0 |
| 20260508130003 | 56 | 102 | 7.0 | 13.0 | 0.00 | 0.00 | 0.00 | 53 | 1014.0 |
| 20260508125403 | 56 | 102 | 7.0 | 15.0 | 0.00 | 0.00 | 0.00 | 54 | 1014.0 |
| 20260508124803 | 56 | 101 | 7.0 | 15.0 | 0.00 | 0.00 | 0.00 | 56 | 1014.0 |
| 20260508124203 | 56 | 99 | 6.0 | 16.0 | 0.00 | 0.00 | 0.00 | 56 | 1014.0 |
| 20260508123603 | 56 | 99 | 6.0 | 15.0 | 0.00 | 0.00 | 0.00 | 55 | 1014.0 |
| 20260508123003 | 56 | 99 | 7.0 | 15.0 | 0.00 | 0.00 | 0.00 | 56 | 1014.0 |
| 20260508122403 | 56 | 99 | 7.0 | 14.0 | 0.00 | 0.00 | 0.00 | 54 | 1014.0 |
| 20260508121803 | 57 | 100 | 7.0 | 15.0 | 0.00 | 0.00 | 0.00 | 55 | 1014.0 |
| 20260508121203 | 57 | 99 | 7.0 | 15.0 | 0.00 | 0.00 | 0.00 | 55 | 1014.0 |
| 20260508120603 | 57 | 97 | 7.0 | 20.0 | 0.00 | 0.00 | 0.00 | 57 | 1014.0 |
| 20260508120024 | 57 | 98 | 7.0 | 15.0 | 0.00 | 0.00 | 0.00 | 56 | 1014.0 |
| 20260508115403 | 57 | 99 | 7.0 | 19.0 | 0.00 | 0.00 | 0.00 | 56 | 1014.0 |
| 20260508114803 | 57 | 100 | 7.0 | 19.0 | 0.00 | 0.00 | 0.00 | 56 | 1014.0 |
| 20260508114203 | 57 | 100 | 6.0 | 13.0 | 0.00 | 0.00 | 0.00 | 57 | 1014.0 |
| 20260508113603 | 57 | 101 | 6.0 | 14.0 | 0.00 | 0.00 | 0.00 | 57 | 1014.0 |
| 20260508113004 | 57 | 101 | 5.0 | 14.0 | 0.00 | 0.00 | 0.00 | 57 | 1013.9 |
| 20260508112403 | 57 | 98 | 5.0 | 14.0 | 0.00 | 0.00 | 0.00 | 57 | 1013.9 |
| 20260508111803 | 57 | 97 | 5.0 | 11.0 | 0.00 | 0.00 | 0.00 | 55 | 1014.0 |
| 20260508111203 | 57 | 99 | 5.0 | 12.0 | 0.00 | 0.00 | 0.00 | 56 | 1014.0 |
| 20260508110603 | 57 | 99 | 5.0 | 12.0 | 0.00 | 0.00 | 0.00 | 56 | 1013.9 |
| 20260508110024 | 57 | 99 | 5.0 | 11.0 | 0.00 | 0.00 | 0.00 | 59 | 1013.9 |
| 20260508105403 | 57 | 100 | 5.0 | 14.0 | 0.00 | 0.00 | 0.00 | 61 | 1013.9 |
| 20260508104824 | 58 | 98 | 5.0 | 14.0 | 0.00 | 0.00 | 0.00 | 59 | 1013.9 |
| 20260508104224 | 58 | 100 | 5.0 | 14.0 | 0.00 | 0.00 | 0.00 | 60 | 1014.0 |
| 20260508103603 | 58 | 99 | 5.0 | 13.0 | 0.00 | 0.00 | 0.00 | 60 | 1014.0 |
| 20260508103003 | 58 | 102 | 5.0 | 12.0 | 0.00 | 0.00 | 0.00 | 60 | 1014.0 |
| 20260508102403 | 58 | 104 | 6.0 | 12.0 | 0.00 | 0.00 | 0.00 | 63 | 1014.1 |
| 20260508101803 | 58 | 102 | 5.0 | 12.0 | 0.00 | 0.00 | 0.00 | 63 | 1014.2 |
| 20260508101203 | 58 | 102 | 5.0 | 12.0 | 0.00 | 0.00 | 0.00 | 64 | 1014.1 |
| 20260508100624 | 58 | 99 | 5.0 | 15.0 | 0.00 | 0.00 | 0.00 | 64 | 1014.2 |
| 20260508100003 | 58 | 101 | 5.0 | 12.0 | 0.00 | 0.00 | 0.00 | 65 | 1014.2 |
| 20260508095403 | 58 | 100 | 6.0 | 14.0 | 0.00 | 0.00 | 0.00 | 64 | 1014.1 |
| 20260508094803 | 58 | 99 | 6.0 | 14.0 | 0.00 | 0.00 | 0.00 | 64 | 1014.0 |
| 20260508094203 | 58 | 100 | 6.0 | 12.0 | 0.00 | 0.00 | 0.00 | 65 | 1014.0 |
| 20260508093603 | 58 | 102 | 6.0 | 12.0 | 0.00 | 0.00 | 0.00 | 65 | 1014.1 |
| 20260508093003 | 59 | 102 | 6.0 | 13.0 | 0.00 | 0.00 | 0.00 | 65 | 1014.0 |
| 20260508092403 | 59 | 101 | 5.0 | 12.0 | 0.00 | 0.00 | 0.00 | 66 | 1014.2 |
| 20260508091803 | 59 | 101 | 6.0 | 13.0 | 0.00 | 0.00 | 0.00 | 67 | 1013.9 |
| 20260508091203 | 59 | 101 | 5.0 | 13.0 | 0.00 | 0.00 | 0.00 | 66 | 1013.8 |
| 20260508090603 | 59 | 100 | 5.0 | 14.0 | 0.00 | 0.00 | 0.00 | 67 | 1013.8 |
| 20260508090003 | 59 | 99 | 5.0 | 12.0 | 0.00 | 0.00 | 0.00 | 68 | 1013.8 |
| 20260508085424 | 59 | 98 | 6.0 | 14.0 | 0.00 | 0.00 | 0.00 | 69 | 1013.9 |
| 20260508084824 | 59 | 100 | 6.0 | 15.0 | 0.00 | 0.00 | 0.00 | 68 | 1013.8 |
| 20260508084203 | 60 | 100 | 6.0 | 14.0 | 0.00 | 0.00 | 0.00 | 68 | 1013.7 |
| 20260508083603 | 60 | 102 | 6.0 | 13.0 | 0.00 | 0.00 | 0.00 | 70 | 1013.8 |
| 20260508083003 | 60 | 99 | 6.0 | 13.0 | 0.00 | 0.00 | 0.00 | 69 | 1013.8 |
| 20260508082424 | 60 | 97 | 5.0 | 13.0 | 0.00 | 0.00 | 0.00 | 70 | 1013.8 |
| 20260508081803 | 60 | 97 | 5.0 | 13.0 | 0.00 | 0.00 | 0.00 | 72 | 1013.9 |
| 20260508081203 | 59 | 97 | 5.0 | 12.0 | 0.00 | 0.00 | 0.00 | 72 | 1013.9 |
| 20260508080603 | 60 | 99 | 5.0 | 13.0 | 0.00 | 0.00 | 0.00 | 74 | 1013.9 |
| 20260508080003 | 60 | 100 | 5.0 | 13.0 | 0.00 | 0.00 | 0.00 | 75 | 1013.9 |
| 20260508075403 | 60 | 100 | 5.0 | 12.0 | 0.00 | 0.00 | 0.00 | 75 | 1013.8 |
| 20260508074803 | 60 | 101 | 5.0 | 12.0 | 0.00 | 0.00 | 0.00 | 76 | 1013.8 |
| 20260508074224 | 60 | 101 | 5.0 | 12.0 | 0.00 | 0.00 | 0.00 | 77 | 1013.8 |
| 20260508073603 | 60 | 100 | 5.0 | 12.0 | 0.00 | 0.00 | 0.00 | 76 | 1013.8 |
| 20260508073003 | 60 | 98 | 5.0 | 12.0 | 0.00 | 0.00 | 0.00 | 76 | 1013.8 |
| 20260508072403 | 60 | 97 | 5.0 | 12.0 | 0.00 | 0.00 | 0.00 | 77 | 1013.9 |
| 20260508071803 | 60 | 96 | 5.0 | 12.0 | 0.00 | 0.00 | 0.00 | 78 | 1013.9 |
| 20260508071224 | 60 | 96 | 5.0 | 12.0 | 0.00 | 0.00 | 0.00 | 79 | 1013.9 |
| 20260508070603 | 60 | 94 | 5.0 | 12.0 | 0.00 | 0.00 | 0.00 | 79 | 1014.0 |
| 20260508070003 | 61 | 96 | 5.0 | 13.0 | 0.00 | 0.00 | 0.00 | 79 | 1014.0 |
| 20260508065403 | 61 | 99 | 4.0 | 12.0 | 0.00 | 0.00 | 0.00 | 80 | 1014.0 |
| 20260508064803 | 61 | 94 | 5.0 | 13.0 | 0.00 | 0.00 | 0.00 | 80 | 1014.0 |
| 20260508064203 | 60 | 94 | 5.0 | 13.0 | 0.00 | 0.00 | 0.00 | 81 | 1014.1 |
| 20260508063603 | 60 | 97 | 5.0 | 14.0 | 0.00 | 0.00 | 0.00 | 81 | 1014.1 |
| 20260508063024 | 60 | 97 | 5.0 | 14.0 | 0.00 | 0.00 | 0.00 | 82 | 1014.1 |
| 20260508062403 | 61 | 99 | 5.0 | 12.0 | 0.00 | 0.00 | 0.00 | 82 | 1014.3 |
| 20260508061803 | 61 | 99 | 6.0 | 13.0 | 0.00 | 0.00 | 0.00 | 83 | 1014.2 |
| 20260508061203 | 61 | 98 | 6.0 | 13.0 | 0.00 | 0.00 | 0.00 | 83 | 1014.2 |
| 20260508060603 | 61 | 102 | 5.0 | 12.0 | 0.00 | 0.00 | 0.00 | 84 | 1014.3 |
| 20260508060003 | 61 | 103 | 3.0 | 11.0 | 0.00 | 0.00 | 0.00 | 84 | 1014.2 |
| 20260508055403 | 61 | 109 | 3.0 | 12.0 | 0.00 | 0.00 | 0.00 | 84 | 1014.3 |
| 20260508054803 | 61 | 104 | 3.0 | 12.0 | 0.00 | 0.00 | 0.00 | 85 | 1014.4 |
| 20260508054203 | 61 | 99 | 3.0 | 8.0 | 0.00 | 0.00 | 0.00 | 86 | 1014.5 |
| 20260508053603 | 61 | 101 | 3.0 | 8.0 | 0.00 | 0.00 | 0.00 | 86 | 1014.4 |
| 20260508053003 | 61 | 123 | 3.0 | 8.0 | 0.00 | 0.00 | 0.00 | 86 | 1014.4 |
| 20260508052403 | 61 | 164 | 1.0 | 6.0 | 0.00 | 0.00 | 0.00 | 86 | 1014.5 |
| 20260508051803 | 61 | 225 | 0.0 | 2.0 | 0.00 | 0.00 | 0.00 | 85 | 1014.5 |
| 20260508051224 | 61 | 225 | 0.0 | 2.0 | 0.00 | 0.00 | 0.00 | 85 | 1014.6 |
| 20260508050624 | 61 | 225 | 0.0 | 2.0 | 0.00 | 0.00 | 0.00 | 85 | 1014.5 |
| 20260508050003 | 61 | 0 | 0.0 | 0.0 | 0.00 | 0.00 | 0.00 | 85 | 1014.6 |
| 20260508045403 | 62 | 0 | 0.0 | 0.0 | 0.00 | 0.00 | 0.00 | 85 | 1014.6 |
| 20260508044803 | 62 | 0 | 0.0 | 0.0 | 0.00 | 0.00 | 0.00 | 84 | 1014.6 |
| 20260508044203 | 62 | 0 | 0.0 | 0.0 | 0.00 | 0.00 | 0.00 | 84 | 1014.7 |
| 20260508043603 | 62 | 0 | 0.0 | 0.0 | 0.00 | 0.00 | 0.00 | 84 | 1014.6 |
| 20260508043003 | 62 | 0 | 0.0 | 0.0 | 0.00 | 0.00 | 0.00 | 84 | 1014.6 |
| 20260508042424 | 62 | 0 | 0.0 | 0.0 | 0.00 | 0.00 | 0.00 | 83 | 1014.5 |
| 20260508041803 | 63 | 225 | 0.0 | 1.0 | 0.00 | 0.00 | 0.00 | 83 | 1014.5 |
| 20260508041203 | 63 | 225 | 0.0 | 2.0 | 0.00 | 0.00 | 0.00 | 83 | 1014.4 |
| 20260508040603 | 63 | 225 | 0.0 | 2.0 | 0.00 | 0.00 | 0.00 | 82 | 1014.3 |
| 20260508040024 | 63 | 225 | 0.0 | 2.0 | 0.00 | 0.00 | 0.00 | 82 | 1014.3 |
| 20260508035424 | 63 | 225 | 0.0 | 2.0 | 0.00 | 0.00 | 0.00 | 81 | 1014.1 |
| 20260508034803 | 64 | 225 | 0.0 | 2.0 | 0.00 | 0.00 | 0.00 | 81 | 1014.1 |
| 20260508034203 | 64 | 225 | 0.0 | 2.0 | 0.00 | 0.00 | 0.00 | 80 | 1014.0 |
| 20260508033603 | 64 | 225 | 1.0 | 3.0 | 0.00 | 0.00 | 0.00 | 79 | 1014.0 |
| 20260508033003 | 65 | 225 | 1.0 | 4.0 | 0.00 | 0.00 | 0.00 | 78 | 1014.0 |
| 20260508032403 | 65 | 224 | 1.0 | 4.0 | 0.00 | 0.00 | 0.00 | 78 | 1014.0 |
| 20260508031803 | 66 | 224 | 1.0 | 4.0 | 0.00 | 0.00 | 0.00 | 77 | 1014.0 |
| 20260508031203 | 66 | 231 | 1.0 | 4.0 | 0.00 | 0.00 | 0.00 | 76 | 1013.9 |
| 20260508030624 | 66 | 244 | 1.0 | 4.0 | 0.00 | 0.00 | 0.00 | 76 | 1013.8 |
| 20260508030003 | 67 | 265 | 1.0 | 4.0 | 0.00 | 0.00 | 0.00 | 75 | 1013.8 |
| 20260508025424 | 67 | 248 | 1.0 | 4.0 | 0.00 | 0.00 | 0.00 | 74 | 1013.7 |
| 20260508024803 | 68 | 234 | 1.0 | 4.0 | 0.00 | 0.00 | 0.00 | 74 | 1013.7 |
| 20260508024203 | 68 | 234 | 0.0 | 2.0 | 0.00 | 0.00 | 0.00 | 72 | 1013.5 |
| 20260508023624 | 69 | 234 | 1.0 | 3.0 | 0.00 | 0.00 | 0.00 | 72 | 1013.5 |
| 20260508023003 | 69 | 237 | 1.0 | 4.0 | 0.00 | 0.00 | 0.00 | 71 | 1013.5 |
| 20260508022403 | 70 | 250 | 1.0 | 3.0 | 0.00 | 0.00 | 0.00 | 70 | 1013.6 |
| 20260508021803 | 70 | 257 | 0.0 | 3.0 | 0.00 | 0.00 | 0.00 | 69 | 1013.6 |
| 20260508021203 | 70 | 258 | 0.0 | 3.0 | 0.00 | 0.00 | 0.00 | 69 | 1013.6 |
| 20260508020603 | 70 | 255 | 1.0 | 4.0 | 0.00 | 0.00 | 0.00 | 67 | 1013.6 |
| 20260508020003 | 71 | 250 | 1.0 | 4.0 | 0.00 | 0.00 | 0.00 | 66 | 1013.7 |
| 20260508015403 | 71 | 244 | 1.0 | 3.0 | 0.00 | 0.00 | 0.00 | 66 | 1013.8 |
| 20260508014803 | 71 | 244 | 0.0 | 3.0 | 0.00 | 0.00 | 0.00 | 64 | 1013.7 |
| 20260508014203 | 72 | 244 | 0.0 | 3.0 | 0.00 | 0.00 | 0.00 | 66 | 1013.7 |
| 20260508013603 | 72 | 246 | 1.0 | 4.0 | 0.00 | 0.00 | 0.00 | 64 | 1013.7 |
| 20260508013003 | 72 | 255 | 1.0 | 4.0 | 0.00 | 0.00 | 0.00 | 64 | 1013.8 |
| 20260508012403 | 72 | 284 | 0.0 | 2.0 | 0.00 | 0.00 | 0.00 | 63 | 1013.8 |
| 20260508011803 | 72 | 269 | 2.0 | 7.0 | 0.00 | 0.00 | 0.00 | 63 | 1013.8 |
| 20260508011203 | 72 | 264 | 2.0 | 7.0 | 0.00 | 0.00 | 0.00 | 64 | 1013.9 |
| 20260508010603 | 73 | 256 | 2.0 | 5.0 | 0.00 | 0.00 | 0.00 | 64 | 1013.9 |
| 20260508010003 | 73 | 263 | 2.0 | 7.0 | 0.00 | 0.00 | 0.00 | 66 | 1013.9 |
| 20260508005403 | 73 | 277 | 2.0 | 7.0 | 0.00 | 0.00 | 0.00 | 64 | 1014.0 |
| 20260508004824 | 73 | 260 | 2.0 | 7.0 | 0.00 | 0.00 | 0.00 | 65 | 1014.0 |
| 20260508004224 | 73 | 258 | 2.0 | 7.0 | 0.00 | 0.00 | 0.00 | 63 | 1014.0 |
| 20260508003603 | 73 | 260 | 1.0 | 5.0 | 0.00 | 0.00 | 0.00 | 62 | 1014.2 |
| 20260508003003 | 73 | 251 | 1.0 | 5.0 | 0.00 | 0.00 | 0.00 | 63 | 1014.1 |
| 20260508002403 | 72 | 280 | 2.0 | 7.0 | 0.00 | 0.00 | 0.00 | 63 | 1014.2 |
| 20260508001803 | 72 | 286 | 2.0 | 7.0 | 0.00 | 0.00 | 0.00 | 61 | 1014.1 |
| 20260508001203 | 73 | 268 | 2.0 | 8.0 | 0.00 | 0.00 | 0.00 | 61 | 1014.0 |
| 20260508000624 | 73 | 268 | 2.0 | 8.0 | 0.00 | 0.00 | 0.00 | 59 | 1014.1 |
| 20260508000003 | 73 | 285 | 2.0 | 7.0 | 0.00 | 0.00 | 0.00 | 62 | 1014.1 |
| 20260507235403 | 72 | 272 | 1.0 | 6.0 | 0.00 | 0.00 | 0.00 | 61 | 1014.0 |
| 20260507234803 | 72 | 245 | 4.0 | 12.0 | 0.00 | 0.00 | 0.00 | 60 | 1014.0 |
| 20260507234203 | 72 | 260 | 4.0 | 12.0 | 0.00 | 0.00 | 0.00 | 60 | 1014.1 |
| 20260507233603 | 72 | 296 | 2.0 | 6.0 | 0.00 | 0.00 | 0.00 | 62 | 1014.0 |
| 20260507233003 | 73 | 284 | 2.0 | 6.0 | 0.00 | 0.00 | 0.00 | 62 | 1014.1 |
| 20260507232403 | 73 | 270 | 1.0 | 4.0 | 0.00 | 0.00 | 0.00 | 63 | 1014.2 |
| 20260507231803 | 73 | 250 | 1.0 | 6.0 | 0.00 | 0.00 | 0.00 | 61 | 1014.2 |
| 20260507231203 | 73 | 250 | 1.0 | 7.0 | 0.00 | 0.00 | 0.00 | 62 | 1014.3 |
| 20260507230603 | 73 | 230 | 3.0 | 8.0 | 0.00 | 0.00 | 0.00 | 61 | 1014.4 |
| 20260507230003 | 73 | 239 | 3.0 | 8.0 | 0.00 | 0.00 | 0.00 | 62 | 1014.4 |
| 20260507225403 | 72 | 264 | 2.0 | 8.0 | 0.00 | 0.00 | 0.00 | 62 | 1014.5 |
| 20260507224803 | 72 | 257 | 3.0 | 8.0 | 0.00 | 0.00 | 0.00 | 64 | 1014.5 |
| 20260507224224 | 72 | 268 | 4.0 | 11.0 | 0.00 | 0.00 | 0.00 | 62 | 1014.5 |
| 20260507223603 | 72 | 268 | 4.0 | 11.0 | 0.00 | 0.00 | 0.00 | 64 | 1014.7 |
| 20260507223003 | 72 | 244 | 3.0 | 11.0 | 0.00 | 0.00 | 0.00 | 64 | 1014.8 |
| 20260507222403 | 72 | 231 | 4.0 | 11.0 | 0.00 | 0.00 | 0.00 | 65 | 1014.9 |
| 20260507221803 | 72 | 249 | 4.0 | 11.0 | 0.00 | 0.00 | 0.00 | 65 | 1014.9 |
| 20260507221203 | 72 | 253 | 3.0 | 8.0 | 0.00 | 0.00 | 0.00 | 65 | 1014.8 |
| 20260507220624 | 72 | 248 | 3.0 | 8.0 | 0.00 | 0.00 | 0.00 | 66 | 1014.9 |
| 20260507220024 | 72 | 254 | 4.0 | 8.0 | 0.00 | 0.00 | 0.00 | 66 | 1015.1 |
| 20260507215424 | 72 | 273 | 4.0 | 8.0 | 0.00 | 0.00 | 0.00 | 67 | 1015.1 |
| 20260507214803 | 72 | 256 | 3.0 | 8.0 | 0.00 | 0.00 | 0.00 | 65 | 1015.1 |
| 20260507214203 | 72 | 275 | 1.0 | 8.0 | 0.00 | 0.00 | 0.00 | 67 | 1015.3 |
| 20260507213603 | 72 | 289 | 2.0 | 11.0 | 0.00 | 0.00 | 0.00 | 66 | 1015.4 |
| 20260507213003 | 72 | 269 | 2.0 | 8.0 | 0.00 | 0.00 | 0.00 | 65 | 1015.4 |
| 20260507212403 | 72 | 257 | 2.0 | 8.0 | 0.00 | 0.00 | 0.00 | 68 | 1015.5 |
| 20260507211803 | 72 | 260 | 2.0 | 8.0 | 0.00 | 0.00 | 0.00 | 67 | 1015.5 |
| 20260507211224 | 72 | 247 | 2.0 | 6.0 | 0.00 | 0.00 | 0.00 | 66 | 1015.6 |
| 20260507210603 | 72 | 228 | 3.0 | 8.0 | 0.00 | 0.00 | 0.00 | 67 | 1015.6 |
| 20260507210003 | 72 | 212 | 2.0 | 8.0 | 0.00 | 0.00 | 0.00 | 68 | 1015.6 |
| 20260507205403 | 72 | 215 | 2.0 | 6.0 | 0.00 | 0.00 | 0.00 | 67 | 1015.7 |
| 20260507204803 | 71 | 216 | 1.0 | 6.0 | 0.00 | 0.00 | 0.00 | 65 | 1015.7 |
| 20260507204203 | 71 | 233 | 1.0 | 6.0 | 0.00 | 0.00 | 0.00 | 67 | 1015.8 |
| 20260507203603 | 71 | 241 | 2.0 | 6.0 | 0.00 | 0.00 | 0.00 | 66 | 1015.7 |
| 20260507203003 | 71 | 273 | 3.0 | 8.0 | 0.00 | 0.00 | 0.00 | 65 | 1015.8 |
| 20260507202403 | 71 | 257 | 3.0 | 8.0 | 0.00 | 0.00 | 0.00 | 65 | 1015.8 |
| 20260507201803 | 71 | 226 | 2.0 | 6.0 | 0.00 | 0.00 | 0.00 | 65 | 1015.9 |
| 20260507201203 | 71 | 228 | 2.0 | 6.0 | 0.00 | 0.00 | 0.00 | 64 | 1016.0 |
| 20260507200603 | 71 | 249 | 3.0 | 7.0 | 0.00 | 0.00 | 0.00 | 66 | 1016.0 |
| 20260507200003 | 71 | 251 | 2.0 | 7.0 | 0.00 | 0.00 | 0.00 | 66 | 1015.9 |
| 20260507195403 | 71 | 237 | 2.0 | 8.0 | 0.00 | 0.00 | 0.00 | 67 | 1016.1 |
| 20260507194803 | 71 | 216 | 2.0 | 7.0 | 0.00 | 0.00 | 0.00 | 67 | 1016.2 |
| 20260507194203 | 70 | 210 | 2.0 | 11.0 | 0.00 | 0.00 | 0.00 | 68 | 1016.2 |
| 20260507193603 | 70 | 213 | 3.0 | 11.0 | 0.00 | 0.00 | 0.00 | 68 | 1016.3 |
| 20260507193003 | 70 | 221 | 3.0 | 10.0 | 0.00 | 0.00 | 0.00 | 71 | 1016.4 |
| 20260507192403 | 70 | 219 | 2.0 | 10.0 | 0.00 | 0.00 | 0.00 | 73 | 1016.4 |
| 20260507191824 | 70 | 226 | 2.0 | 6.0 | 0.00 | 0.00 | 0.00 | 71 | 1016.3 |
| 20260507191203 | 70 | 229 | 3.0 | 11.0 | 0.00 | 0.00 | 0.00 | 71 | 1016.5 |
| 20260507190603 | 69 | 229 | 3.0 | 11.0 | 0.00 | 0.00 | 0.00 | 71 | 1016.4 |
| 20260507190004 | 69 | 228 | 2.0 | 6.0 | 0.00 | 0.00 | 0.00 | 71 | 1016.5 |
| 20260507185424 | 69 | 185 | 2.0 | 6.0 | 0.00 | 0.00 | 0.00 | 72 | 1016.5 |
| 20260507184803 | 69 | 161 | 2.0 | 7.0 | 0.00 | 0.00 | 0.00 | 71 | 1016.5 |
| 20260507184203 | 69 | 178 | 3.0 | 7.0 | 0.00 | 0.00 | 0.00 | 69 | 1016.5 |
| 20260507183603 | 69 | 215 | 3.0 | 10.0 | 0.00 | 0.00 | 0.00 | 69 | 1016.7 |
| 20260507183003 | 69 | 220 | 2.0 | 10.0 | 0.00 | 0.00 | 0.00 | 72 | 1016.8 |
| 20260507182403 | 68 | 195 | 2.0 | 7.0 | 0.00 | 0.00 | 0.00 | 74 | 1016.8 |
| 20260507181803 | 68 | 231 | 1.0 | 7.0 | 0.00 | 0.00 | 0.00 | 72 | 1016.8 |
| 20260507181203 | 68 | 213 | 2.0 | 6.0 | 0.00 | 0.00 | 0.00 | 71 | 1016.8 |
| 20260507180603 | 68 | 210 | 3.0 | 8.0 | 0.00 | 0.00 | 0.00 | 72 | 1016.8 |
| 20260507180003 | 68 | 176 | 2.0 | 8.0 | 0.00 | 0.00 | 0.00 | 74 | 1016.8 |
| 20260507175403 | 68 | 139 | 1.0 | 6.0 | 0.00 | 0.00 | 0.00 | 73 | 1016.7 |
| 20260507174803 | 67 | 188 | 2.0 | 6.0 | 0.00 | 0.00 | 0.00 | 73 | 1016.8 |
| 20260507174203 | 67 | 190 | 3.0 | 9.0 | 0.00 | 0.00 | 0.00 | 74 | 1016.8 |
| 20260507173603 | 66 | 206 | 2.0 | 9.0 | 0.00 | 0.00 | 0.00 | 75 | 1016.8 |
| 20260507173003 | 66 | 215 | 1.0 | 7.0 | 0.00 | 0.00 | 0.00 | 75 | 1016.8 |
| 20260507172403 | 66 | 216 | 0.0 | 5.0 | 0.00 | 0.00 | 0.00 | 77 | 1016.8 |
| 20260507171803 | 66 | 130 | 1.0 | 7.0 | 0.00 | 0.00 | 0.00 | 77 | 1016.9 |
| 20260507171203 | 66 | 133 | 2.0 | 7.0 | 0.00 | 0.00 | 0.00 | 76 | 1017.0 |
| 20260507170603 | 66 | 151 | 4.0 | 9.0 | 0.00 | 0.00 | 0.00 | 75 | 1017.0 |
| 20260507170024 | 65 | 154 | 5.0 | 10.0 | 0.00 | 0.00 | 0.00 | 76 | 1017.0 |
| 20260507165403 | 65 | 148 | 4.0 | 10.0 | 0.00 | 0.00 | 0.00 | 78 | 1017.0 |
| 20260507164803 | 65 | 139 | 3.0 | 8.0 | 0.00 | 0.00 | 0.00 | 77 | 1017.1 |
| 20260507164203 | 64 | 153 | 4.0 | 9.0 | 0.00 | 0.00 | 0.00 | 80 | 1017.1 |
| 20260507163603 | 64 | 145 | 3.0 | 9.0 | 0.00 | 0.00 | 0.00 | 79 | 1017.1 |
| 20260507163003 | 63 | 140 | 2.0 | 8.0 | 0.00 | 0.00 | 0.00 | 81 | 1017.0 |
| 20260507162424 | 62 | 173 | 2.0 | 7.0 | 0.00 | 0.00 | 0.00 | 82 | 1017.1 |
| 20260507161803 | 61 | 182 | 3.0 | 8.0 | 0.00 | 0.00 | 0.00 | 86 | 1017.1 |
| 20260507161224 | 61 | 174 | 2.0 | 8.0 | 0.00 | 0.00 | 0.00 | 88 | 1017.1 |
| 20260507160624 | 60 | 168 | 2.0 | 7.0 | 0.00 | 0.00 | 0.00 | 88 | 1017.2 |
| 20260507160003 | 59 | 154 | 1.0 | 7.0 | 0.00 | 0.00 | 0.00 | 88 | 1017.1 |
| 20260507155403 | 59 | 133 | 0.0 | 2.0 | 0.00 | 0.00 | 0.00 | 88 | 1017.1 |
| 20260507154824 | 59 | 138 | 1.0 | 6.0 | 0.00 | 0.00 | 0.00 | 88 | 1017.1 |
| 20260507154203 | 58 | 138 | 2.0 | 8.0 | 0.00 | 0.00 | 0.00 | 90 | 1017.2 |
| 20260507153624 | 57 | 132 | 2.0 | 8.0 | 0.00 | 0.00 | 0.00 | 91 | 1017.1 |
| 20260507153003 | 57 | 130 | 2.0 | 8.0 | 0.00 | 0.00 | 0.00 | 91 | 1017.2 |
| 20260507152403 | 56 | 124 | 2.0 | 7.0 | 0.00 | 0.00 | 0.00 | 92 | 1017.1 |
| 20260507151803 | 56 | 127 | 2.0 | 6.0 | 0.00 | 0.00 | 0.00 | 93 | 1017.1 |
| 20260507151203 | 55 | 126 | 2.0 | 6.0 | 0.00 | 0.00 | 0.00 | 93 | 1017.2 |
| 20260507150603 | 55 | 120 | 2.0 | 8.0 | 0.00 | 0.00 | 0.00 | 93 | 1017.3 |
| 20260507150024 | 54 | 119 | 2.0 | 8.0 | 0.00 | 0.00 | 0.00 | 93 | 1017.3 |
| 20260507145403 | 54 | 118 | 2.0 | 8.0 | 0.00 | 0.00 | 0.00 | 93 | 1017.3 |
| 20260507144803 | 54 | 123 | 2.0 | 8.0 | 0.00 | 0.00 | 0.00 | 93 | 1017.4 |
| 20260507144203 | 54 | 122 | 3.0 | 8.0 | 0.00 | 0.00 | 0.00 | 94 | 1017.3 |
| 20260507143624 | 53 | 117 | 3.0 | 8.0 | 0.00 | 0.00 | 0.00 | 94 | 1017.3 |
| 20260507143003 | 53 | 119 | 3.0 | 9.0 | 0.00 | 0.00 | 0.00 | 94 | 1017.2 |
| 20260507142403 | 53 | 126 | 3.0 | 11.0 | 0.00 | 0.00 | 0.00 | 94 | 1017.1 |
| 20260507141803 | 53 | 122 | 4.0 | 11.0 | 0.00 | 0.00 | 0.00 | 94 | 1017.1 |
| 20260507141203 | 52 | 123 | 4.0 | 11.0 | 0.00 | 0.00 | 0.00 | 95 | 1017.0 |
| 20260507140624 | 52 | 121 | 3.0 | 11.0 | 0.00 | 0.00 | 0.00 | 94 | 1017.0 |
| 20260507140003 | 52 | 117 | 2.0 | 8.0 | 0.00 | 0.00 | 0.00 | 95 | 1017.0 |
| 20260507135403 | 52 | 111 | 3.0 | 9.0 | 0.00 | 0.00 | 0.00 | 95 | 1016.9 |
| 20260507134824 | 52 | 108 | 3.0 | 9.0 | 0.00 | 0.00 | 0.00 | 95 | 1016.8 |
| 20260507134203 | 52 | 106 | 3.0 | 9.0 | 0.00 | 0.00 | 0.00 | 95 | 1016.9 |
| 20260507133603 | 52 | 106 | 3.0 | 8.0 | 0.00 | 0.00 | 0.00 | 95 | 1016.8 |
| 20260507133003 | 52 | 109 | 3.0 | 8.0 | 0.00 | 0.00 | 0.00 | 95 | 1016.8 |
| 20260507132403 | 52 | 115 | 4.0 | 8.0 | 0.00 | 0.00 | 0.00 | 95 | 1016.7 |
| 20260507131803 | 52 | 120 | 3.0 | 7.0 | 0.00 | 0.00 | 0.00 | 95 | 1016.8 |
| 20260507131203 | 52 | 124 | 3.0 | 7.0 | 0.00 | 0.00 | 0.00 | 95 | 1016.8 |